Location: Gateway
(26.5776°N, 81.7504°W)
Time: 14:55:12
(UTC+00:00)

Daily predictions for brighter satellites

Satellite Brightness Start Highest point End
(mag) Time Altitude Azimuth Time Altitude Azimuth Time Altitude Azimuth
CORIOLIS 4.4 22:48:05 10° SSE 22:53:14 50° ENE 22:58:27 10° N
CCE 1 Rocket 4.0 22:48:32 10° WSW 22:54:11 64° SSE 22:58:05 10° E
Intercosmos 25 4.1 22:49:19 10° N 22:56:05 85° E 23:00:16 10° S
Cosmos 2208 Rocket 4.2 22:51:12 10° SSW 22:56:33 83° WNW 23:02:00 10° NNE
Cosmos 1980 Rocket 2.5 22:52:10 10° N 22:57:31 43° ENE 23:02:48 10° SE
Tiangong 1.2 22:57:33 10° WSW 23:00:41 71° NW 23:03:51 10° NE
DEBRIS 2.3 23:00:18 10° WSW 23:02:14 50° NW 23:04:59 10° NE
Cosmos 1867 3.8 22:58:48 10° S 23:04:02 53° ESE 23:09:21 10° NE
FengYun 1-2 T 4.4 22:59:09 10° S 23:04:45 84° WSW 23:10:19 10° NNW
Cosmos 2082 Rocket 4.2 23:00:48 10° WSW 23:05:31 27° WNW 23:10:16 10° N
H-2A R/B 2.5 23:01:53 10° SE 23:06:39 38° ENE 23:11:18 10° N
Cosmos 2369 3.7 23:01:43 10° NNW 23:07:27 74° ENE 23:13:06 10° SSE
ARGOS 4.2 23:04:47 10° ESE 23:08:55 23° ENE 23:13:04 10° NNE
CZ-2C R/B 4.3 23:04:34 10° S 23:09:18 44° W 23:13:54 10° NNW
Cosmos 1151 Rocket 3.6 23:06:26 10° SSW 23:10:41 62° W 23:14:58 10° N
Cosmos 1937 Rocket 3.9 23:05:32 10° NNW 23:10:49 71° WSW 23:16:03 10° S
Cosmos 372 Rocket 4.0 23:06:28 10° N 23:11:41 68° ENE 23:16:53 10° SSE
SL-16 R/B 3.7 23:10:44 10° NNE 23:13:29 14° ENE 23:16:13 10° E
Meteor 1-5 Rocket 4.4 23:11:33 10° N 23:17:23 57° E 23:23:01 10° SSE
Cosmos 1500 3.8 23:14:00 10° NNW 23:17:39 58° W 23:21:18 10° S
COSMO-SKYMED 1 2.6 23:13:36 10° NNE 23:17:55 65° E 23:22:12 10° S
Cosmos 1939 Rocket 3.8 23:14:14 10° S 23:18:14 53° W 23:22:14 10° NNW
Cosmos 1633 Rocket 3.1 23:15:32 10° N 23:19:50 56° E 23:24:09 10° SSE
CZ-4B DEB 4.2 23:15:21 10° SSE 23:20:52 79° ENE 23:26:22 10° N
CZ-2D R/B 3.2 23:18:29 10° SSE 23:22:16 64° ENE 23:26:03 10° N
Delta 2 Rocket 4.4 23:19:37 10° SW 23:23:57 36° SSE 23:26:53 16° E
Meteor 2-16 Rocket 4.4 23:18:43 10° N 23:24:50 74° E 23:30:57 10° S
Helios 1B 4.5 23:20:31 10° NNE 23:24:51 78° ESE 23:29:10 10° S
Centaur D-1A AC-32 2.3 23:19:08 10° W 23:24:56 78° S 23:28:03 13° E
Landsat 5 3.4 23:24:31 10° NNE 23:28:25 55° E 23:32:10 10° S
Cosmos 2278 3.7 23:24:35 10° N 23:30:12 61° ENE 23:35:47 10° SSE
Aurora 2 Rocket 4.1 23:27:12 10° W 23:31:12 37° SSW 23:36:40 10° SE
SL-27 R/B 4.4 23:29:31 10° SE 23:30:50 14° ESE 23:30:50 14° ESE
Meteor 2-15 Rocket 4.4 23:26:02 10° S 23:32:06 67° E 23:38:09 10° NNE
USA 234 4.2 23:28:32 14° E 23:32:48 26° NE 23:38:01 10° NNW
Meteosat 1 Rocket2 3.7 23:29:01 10° SW 23:33:22 39° SSE 23:35:43 19° E
Meteor 1-14 Rocket 4.5 23:30:14 10° N 23:36:09 82° W 23:42:07 10° S
NOSS 3-3 (A) 3.6 23:32:40 10° SSW 23:38:03 82° ESE 23:43:32 12° NNE
NOSS 3-3 (C) 3.6 23:32:45 10° SSW 23:38:09 81° ESE 23:43:37 12° NNE
MOS 1-B 4.3 23:33:46 10° SSE 23:39:31 82° ENE 23:45:18 10° N
CZ-2C R/B 2.9 23:35:24 10° N 23:40:32 69° WNW 23:45:41 10° SSW
Genesis I 3.1 23:38:30 10° SSW 23:42:18 70° ESE 23:44:39 23° NE
Okean O Rocket 1.8 23:38:45 10° SSE 23:42:59 46° ENE 23:47:14 10° N
Cosmos 1933 Rocket 4.1 23:42:18 10° NNE 23:46:16 35° E 23:50:13 10° SSE
Cosmos 1666 3.7 23:42:56 10° NNW 23:46:29 46° W 23:50:02 10° SSW
CZ-4B R/B 3.1 23:42:41 10° SSE 23:48:06 72° ENE 23:53:26 10° N
SL-24 R/B - RUBIN 2 4.1 23:45:36 10° NW 23:49:50 59° WSW 23:54:07 10° SSE
Meteor 1-27 Rocket 3.6 23:46:17 10° S 23:51:49 80° E 23:57:20 10° N
Cosmos 1470 Rocket 3.5 23:47:47 10° N 23:52:16 78° E 23:56:44 10° S
Cosmos 482 Debris 4.2 23:51:36 10° SSW 23:54:44 70° SE 23:56:25 36° NE
BREEZE-M DEB (TANK) 4.2 23:54:01 10° NW 23:57:41 38° SW 23:59:57 10° SSE
